Location: Gowrie
(35.4119°S, 149.1090°E)
Time: 02:37:40
(UTC+10:00)

ISS - Visible Passes

Search period start: 21 July 2017 00:00
Search period end: 31 July 2017 00:00
Orbit: 400 x 408 km, 51.6° (Epoch: 20 July)

Date Brightness Start Highest point End Pass type
(mag) Time Alt. Az. Time Alt. Az. Time Alt. Az.
22 Jul -0.2 17:55:44 10° WNW 17:56:59 12° NW 17:58:15 10° NNW visible
28 Jul -1.3 06:10:11 10° N 06:12:59 26° NE 06:15:50 10° ESE visible
29 Jul -0.6 05:19:16 10° NNE 05:20:46 13° NE 05:22:17 10° E visible
30 Jul -3.6 06:01:09 10° NW 06:04:28 74° NE 06:07:49 10° SE visible
